Regional Weather Roundup
Issued by NWS

Home | Current Version | Previous Version | Graphics & Text | Print | Product List | Glossary On
Versions: 1 2 3 4 5 6 7 8 9 10 11 12 13 14 15 16 17 18 19 20 21 22 23 24 25 26 27 28 29 30 31 32 33 34 35 36 37 38 39 40 41 42 43 44 45
000
ASUS45 KBOI 211110
RWRID
WEATHER ROUNDUP FOR IDAHO
NATIONAL WEATHER SERVICE BOISE ID
500 AM MDT TUE OCT 21 2014

NOTE: "FAIR" INDICATES FEW OR NO CLOUDS BELOW 12000 FEET
WITH NO SIGNIFICANT WEATHER AND/OR OBSTRUCTIONS TO VISIBILITY

IDZ012-014-211200-
SOUTHWEST IDAHO


CITY           SKY/WX    TMP DP  RH WIND       PRES   REMARKS
BOISE          LGT RAIN  49  45  86 N7        29.91F
CALDWELL       CLOUDY    48  39  71 E10       29.90F
MOUNTAIN HOME  RAIN      48  48 100 NW18      29.94R
$$

IDZ016-017-211200-
SOUTHCENTRAL IDAHO


CITY           SKY/WX    TMP DP  RH WIND       PRES   REMARKS
BURLEY         LGT RAIN  51  40  65 W22G30    29.83R
JEROME         LGT RAIN  51  39  63 SW21G30   29.83R
TWIN FALLS     CLEAR     50  41  71 SW16G26   29.87R
$$

IDZ019>023-211200-
SOUTHEAST IDAHO


CITY           SKY/WX    TMP DP  RH WIND       PRES   REMARKS
IDAHO FALLS    MOCLDY    57  41  55 S3        29.81R
POCATELLO      MOCLDY    66  37  34 S25G35    29.80R
REXBURG        TSTM      49  39  68 E5        29.83F
$$

IDZ006-010-011-018-031-032-211200-
CENTRAL IDAHO MOUNTAINS


CITY           SKY/WX    TMP DP  RH WIND       PRES   REMARKS
MCCALL         RAIN      44  41  89 SE6       29.86S FOG
HAILEY         PTCLDY    52  41  66 SE9       29.79F
STANLEY          N/A     43  40  89 CALM      29.88S
SALMON         CLOUDY    52  37  58 S6        29.74R
CHALLIS        CLOUDY    50  44  80 S7        29.77F
$$

IDZ002-004-006-007-026-211200-
NORTHERN IDAHO


CITY           SKY/WX    TMP DP  RH WIND       PRES   REMARKS
LEWISTON       LGT RAIN  52  50  93 NE5       29.87R
LOWELL           N/A     51  49  92 CALM      29.89S
COEUR D`ALENE  CLOUDY    48  45  87 SW6       29.84R
MULLAN PASS    FOG       37  37 100 NW8       29.84F VSB 1/2 WCI  31
$$



USA.gov is the U.S. government's official web portal to all federal, state and local government web resources and services.